Location: ??????????
(48.4699°N, 37.9573°E)
Time: 11:54:40
(UTC+00:00)

USA 234 - Pass Details

Date: 20 January 2021
Orbit: 1100 x 1107 km, 123.0° (Epoch: 25 February)

Event Time Altitude Azimuth Distance (km) Brightness Sun altitude
Exits shadow 15:05:28 11° 71° (ENE) 2,860 4.7 -9.4°
Maximum altitude 15:11:15 43° 4° (N) 1,516 3.9 -10.3°
Drops below altitude 10° 15:17:19 10° 296° (WNW) 2,968 6.2 -11.3°
Sets 15:19:56 0° 290° (WNW) 3,928 7.1 -11.7°
